Measurements were made at the meteorological tower in Juelich (50.90 N / 6.40 E) at an altitude of 100 m,
"Instrument: Fast Greenhouse Gas Analyzer (FGGA), Los Gatos Inc.",
Responsible PI: Dr. Marc von Hobe; Forschungszentrum Juelich GmbH; IEK-7; email: m.von.hobe@fz-juelich.de,
NaN or negative numbers are fill values (i.e. no valid measurements were made at that time),
Uncertainties are given as the 1-sigma standard deviation over each 10 minute intervals. In each interval ~600 individual measurements are carried out so that the standard error of the mean is approximately sigma/sqrt(600).,
time_utc,CO2_ppm,stdev_CO2_ppm,CH4_ppm,stdev_CH4_ppm,H2O_ppm,stdev_H2O_ppm
"2016-09-01 00:05:00 000",428.925,1.61577,2.25629,0.0203831,12793.3,148.399
"2016-09-01 00:15:00 000",431.098,1.90650,2.27057,0.00760415,12761.1,129.686
"2016-09-01 00:25:00 000",429.281,1.69424,2.25608,0.00695706,12665.8,136.444
"2016-09-01 00:35:00 000",428.143,1.39088,2.25062,0.00733579,12673.0,123.418
"2016-09-01 00:45:00 000",424.241,1.46713,2.22560,0.00880472,12611.4,138.439
"2016-09-01 00:55:00 000",420.247,1.62441,2.19207,0.0100375,12493.2,126.818
"2016-09-01 01:05:00 000",418.003,2.26617,2.17863,0.0171213,12385.3,114.092
"2016-09-01 01:15:00 000",414.001,1.98349,2.15219,0.0191968,12436.4,117.929
"2016-09-01 01:25:00 000",411.232,1.02816,2.11779,0.00535434,12479.5,110.478
"2016-09-01 01:35:00 000",410.584,1.23004,2.11327,0.00680490,12521.3,100.387
"2016-09-01 01:45:00 000",408.112,1.04589,2.10159,0.00515676,12477.9,101.602
"2016-09-01 01:55:00 000",408.295,1.01112,2.10120,0.00597703,12417.4,100.378
"2016-09-01 02:05:00 000",408.802,1.21757,2.09081,0.00571644,12439.0,101.646
"2016-09-01 02:15:00 000",410.291,1.87604,2.09636,0.0103865,12460.9,107.989
"2016-09-01 02:25:00 000",409.185,2.23422,2.08335,0.0153610,12509.8,95.1712
"2016-09-01 02:35:00 000",405.263,1.43607,2.05990,0.00896109,12498.3,94.9100
"2016-09-01 02:45:00 000",405.078,1.30658,2.05751,0.00831359,12384.7,92.1435
"2016-09-01 02:55:00 000",403.115,1.62703,2.04469,0.0100085,12355.4,98.7569
"2016-09-01 03:05:00 000",402.353,1.04804,2.03376,0.00966366,12318.4,91.3910
"2016-09-01 03:15:00 000",401.709,1.05382,2.01684,0.00504489,12304.0,89.8026
"2016-09-01 03:25:00 000",399.638,0.992892,2.01299,0.00455593,12238.0,91.2974
"2016-09-01 03:35:00 000",399.048,1.18462,2.00724,0.00524613,12236.0,95.2502
"2016-09-01 03:45:00 000",401.255,1.45999,2.02144,0.00706237,12279.1,123.054
"2016-09-01 03:55:00 000",404.697,1.89278,2.03609,0.0127962,12373.0,98.5942
"2016-09-01 04:05:00 000",408.447,1.44378,2.05337,0.00882773,12416.6,112.753
"2016-09-01 04:15:00 000",407.201,1.52581,2.04392,0.00895393,12542.1,94.4201
"2016-09-01 04:25:00 000",409.466,1.55969,2.05757,0.00909289,12460.4,99.0348
"2016-09-01 04:35:00 000",409.470,2.21817,2.05291,0.0100488,12549.6,97.1197
"2016-09-01 04:45:00 000",412.143,2.18364,2.06489,0.0124550,12544.2,114.820
"2016-09-01 04:55:00 000",409.690,1.94940,2.06563,0.0107226,12720.8,105.771
"2016-09-01 05:05:00 000",412.023,1.20805,2.06852,0.00675535,12681.0,102.685
"2016-09-01 05:15:00 000",411.830,1.28299,2.06135,0.00516777,12719.8,100.763
"2016-09-01 05:25:00 000",413.240,1.01555,2.06659,0.00496090,12737.4,107.276
"2016-09-01 05:35:00 000",410.843,0.892776,2.05707,0.00487759,12823.6,107.698
"2016-09-01 05:45:00 000",411.025,0.964844,2.05372,0.00454828,12798.4,99.9915
"2016-09-01 05:55:00 000",412.424,1.09253,2.07184,0.0119087,12730.9,104.667
"2016-09-01 06:05:00 000",416.227,2.59685,2.09447,0.0118626,12584.4,111.387
"2016-09-01 06:15:00 000",421.409,1.48690,2.11372,0.0116652,12455.5,103.538
"2016-09-01 06:25:00 000",421.706,1.65954,2.12503,0.0168588,12614.9,110.231
"2016-09-01 06:35:00 000",420.824,1.76946,2.10497,0.0166096,12662.1,112.838
"2016-09-01 06:45:00 000",424.074,1.61994,2.14847,0.0209493,12657.2,112.897
"2016-09-01 06:55:00 000",424.252,1.08511,2.15078,0.0136102,12654.0,124.217
"2016-09-01 07:05:00 000",424.038,1.07346,2.14146,0.0125330,12959.5,242.830
"2016-09-01 07:15:00 000",422.554,1.50653,2.13816,0.0115557,13175.7,139.696
"2016-09-01 07:25:00 000",419.654,2.01944,2.12178,0.0163611,13099.0,132.704
"2016-09-01 07:35:00 000",418.995,1.30683,2.09358,0.0125538,13161.6,160.323
"2016-09-01 07:45:00 000",419.944,1.08990,2.08255,0.00712090,13062.2,171.820
"2016-09-01 07:55:00 000",420.742,1.03392,2.08969,0.00673397,13291.8,213.015
"2016-09-01 08:05:00 000",420.530,1.25061,2.09438,0.00723699,13351.5,233.725
"2016-09-01 08:15:00 000",416.037,2.37988,2.08524,0.0106231,13484.0,173.094
"2016-09-01 08:25:00 000",410.133,1.26456,2.06850,0.00719369,13602.5,209.226
"2016-09-01 08:35:00 000",407.742,0.903940,2.05281,0.00604061,13557.4,204.039
"2016-09-01 08:45:00 000",407.538,1.23147,2.05395,0.00644772,13826.9,192.579
"2016-09-01 08:55:00 000",408.503,1.21168,2.05023,0.00650601,13674.8,249.079
"2016-09-01 09:05:00 000",406.781,1.76147,2.04084,0.00851408,13625.5,194.464
"2016-09-01 09:15:00 000",403.720,1.35972,2.02616,0.00772196,13555.3,151.752
"2016-09-01 09:25:00 000",400.809,1.35259,2.01075,0.00585916,13511.7,128.889
"2016-09-01 09:35:00 000",399.412,1.11568,2.00044,0.00805380,13365.8,124.716
"2016-09-01 09:45:00 000",399.613,1.04618,2.00737,0.00599623,13541.0,156.073
"2016-09-01 09:55:00 000",399.683,1.23689,2.00923,0.00566959,13585.5,130.324
"2016-09-01 10:05:00 000",397.181,1.36647,1.99775,0.00812883,13519.1,151.010
"2016-09-01 10:15:00 000",396.609,1.23051,1.99723,0.00590396,13754.7,162.425
"2016-09-01 10:25:00 000",396.197,1.19040,2.00135,0.00558890,13868.4,150.021
"2016-09-01 10:35:00 000",393.627,1.33873,1.98711,0.0106340,13859.5,163.358
"2016-09-01 10:45:00 000",392.211,0.958444,1.97291,0.00440158,14068.4,194.609
"2016-09-01 10:55:00 000",392.566,0.998372,1.97031,0.00496535,14245.4,193.907
"2016-09-01 11:05:00 000",391.954,1.17201,1.96139,0.00586090,14044.0,294.498
"2016-09-01 11:15:00 000",391.996,1.13654,1.95519,0.00612693,13642.8,209.829
"2016-09-01 11:25:00 000",393.141,1.19610,1.95505,0.00491093,13754.5,192.658
"2016-09-01 11:35:00 000",392.938,1.15459,1.95366,0.00483589,13697.7,128.038
"2016-09-01 11:45:00 000",392.809,0.918756,1.95378,0.00461622,13772.8,124.067
"2016-09-01 11:55:00 000",394.596,1.16704,1.95754,0.00453812,13607.0,159.976
"2016-09-01 12:05:00 000",395.614,1.02959,1.95441,0.00511435,13447.0,116.550
"2016-09-01 12:15:00 000",392.894,1.07906,1.94699,0.00538157,13354.0,183.235
"2016-09-01 12:25:00 000",390.558,1.81623,1.94729,0.00611744,13894.0,141.150
"2016-09-01 12:35:00 000",388.180,0.984861,1.93911,0.00503644,14005.2,168.737
"2016-09-01 12:45:00 000",388.424,0.983910,1.93376,0.00450587,13896.7,119.017
"2016-09-01 12:55:00 000",387.672,0.992134,1.93092,0.00429831,13957.8,158.013
"2016-09-01 13:05:00 000",387.275,0.931144,1.93473,0.00472094,14236.7,162.133
"2016-09-01 13:15:00 000",385.793,0.949535,1.93105,0.00456723,14283.2,110.793
"2016-09-01 13:25:00 000",385.772,1.25060,1.92351,0.00498632,14121.8,241.852
"2016-09-01 13:35:00 000",387.373,0.951885,1.92231,0.00429352,13747.8,105.592
"2016-09-01 13:45:00 000",386.653,0.945433,1.91911,0.00450194,13575.5,170.921
"2016-09-01 13:55:00 000",386.094,0.974746,1.92311,0.00405262,13762.4,136.871
"2016-09-01 14:05:00 000",385.318,1.13628,1.92434,0.00470883,13880.4,108.769
"2016-09-01 14:15:00 000",386.664,0.905127,1.92341,0.00475000,13610.4,142.169
"2016-09-01 14:25:00 000",386.724,0.831407,1.92458,0.00401803,13709.5,132.697
"2016-09-01 14:35:00 000",385.724,0.979587,1.92427,0.00427301,13760.1,107.231
"2016-09-01 14:45:00 000",386.170,1.00538,1.91852,0.00500902,13531.5,182.388
"2016-09-01 14:55:00 000",386.035,1.05616,1.91473,0.00402778,13425.1,167.739
"2016-09-01 15:05:00 000",386.258,0.971670,1.91261,0.00469797,13424.8,107.065
"2016-09-01 15:15:00 000",386.722,0.921066,1.91457,0.00375940,13636.5,92.0939
"2016-09-01 15:25:00 000",386.878,0.884679,1.91171,0.00420838,13692.4,118.451
"2016-09-01 15:35:00 000",385.582,0.908230,1.91111,0.00427546,13958.4,210.669
"2016-09-01 15:45:00 000",386.448,0.874096,1.91022,0.00447004,13411.4,134.257
"2016-09-01 15:55:00 000",386.265,0.859269,1.91758,0.00405937,13943.8,217.717
"2016-09-01 16:05:00 000",386.104,0.823210,1.92279,0.00389829,14103.8,93.3391
"2016-09-01 16:15:00 000",386.352,0.874649,1.91579,0.00475868,13940.5,169.156
"2016-09-01 16:25:00 000",386.974,0.866229,1.92220,0.00507539,13969.2,116.719
"2016-09-01 16:35:00 000",387.024,0.860111,1.92432,0.00410824,13677.0,125.628
"2016-09-01 16:45:00 000",387.458,0.779511,1.91948,0.00440469,13551.5,127.569
"2016-09-01 16:55:00 000",387.382,0.871722,1.92075,0.00405627,13800.1,111.517
"2016-09-01 17:05:00 000",387.198,1.04696,1.92135,0.00384408,13937.4,98.5117
"2016-09-01 17:15:00 000",387.992,0.825281,1.92381,0.00408796,14078.4,140.007
"2016-09-01 17:25:00 000",388.182,0.798436,1.92689,0.00464923,14171.8,111.741
"2016-09-01 17:35:00 000",388.255,0.802713,1.92620,0.00448871,13992.9,148.870
"2016-09-01 17:45:00 000",388.611,0.797387,1.93128,0.00479697,14070.9,111.915
"2016-09-01 17:55:00 000",387.591,1.14677,1.93052,0.00374306,14304.7,111.489
"2016-09-01 18:05:00 000",387.550,1.12006,1.93576,0.00472469,14471.0,102.022
"2016-09-01 18:15:00 000",388.550,1.21359,1.93696,0.00403444,14431.1,118.157
"2016-09-01 18:25:00 000",388.663,1.07259,1.93840,0.00411438,14318.6,112.895
"2016-09-01 18:35:00 000",387.646,1.76692,1.94047,0.00415326,14291.2,113.989
"2016-09-01 18:45:00 000",389.241,1.36252,1.95257,0.00641052,14350.5,101.076
"2016-09-01 18:55:00 000",390.161,0.829841,1.95768,0.00493619,14171.2,184.987
"2016-09-01 19:05:00 000",388.816,1.46083,1.95265,0.00582935,13881.0,176.011
"2016-09-01 19:15:00 000",388.022,0.836263,1.94910,0.00420503,13523.1,138.232
"2016-09-01 19:25:00 000",388.033,0.965126,1.95391,0.00454510,13254.0,106.805
"2016-09-01 19:35:00 000",388.910,1.16954,1.96313,0.00519352,13334.7,99.3934
"2016-09-01 19:45:00 000",390.033,0.838787,1.97456,0.00624709,13441.7,107.269
"2016-09-01 19:55:00 000",391.013,1.17829,1.99230,0.0124019,13512.5,112.061
"2016-09-01 20:05:00 000",391.474,0.963952,1.99974,0.00623015,13559.6,121.795
"2016-09-01 20:15:00 000",392.508,1.01864,2.00870,0.00878245,13551.5,117.052
"2016-09-01 20:25:00 000",393.360,1.31990,2.01075,0.0126103,13532.0,121.033
"2016-09-01 20:35:00 000",390.816,1.39302,1.99609,0.00594627,13420.1,201.896
"2016-09-01 20:45:00 000",390.167,0.885780,1.99289,0.00518002,13111.5,156.407
"2016-09-01 20:55:00 000",389.697,0.872801,1.98784,0.00604929,12758.8,188.061
"2016-09-01 21:05:00 000",390.205,0.792008,1.98628,0.00587898,12504.8,228.383
"2016-09-01 21:15:00 000",390.034,0.809605,1.98351,0.00472390,12144.2,124.482
"2016-09-01 21:25:00 000",389.949,0.839808,1.98885,0.00446264,12199.2,161.853
"2016-09-01 21:35:00 000",392.552,1.58441,1.99713,0.00882696,12650.1,316.389
"2016-09-01 21:45:00 000",395.140,1.35438,2.01734,0.0105114,13201.4,144.446
"2016-09-01 21:55:00 000",394.357,1.36986,2.01661,0.0105025,13217.5,115.248
"2016-09-01 22:05:00 000",395.949,1.99941,2.04015,0.0257712,13178.6,167.433
"2016-09-01 22:15:00 000",397.734,1.26013,2.05452,0.00741709,13321.2,157.239
"2016-09-01 22:25:00 000",395.158,1.08270,2.04459,0.0107601,13067.4,142.333
"2016-09-01 22:35:00 000",396.417,0.980339,2.04452,0.00966162,13112.6,167.542
"2016-09-01 22:45:00 000",395.378,0.969803,2.04516,0.00424606,13048.6,96.8456
"2016-09-01 22:55:00 000",395.513,1.02121,2.02856,0.0102136,13090.4,106.133
"2016-09-01 23:05:00 000",394.839,0.806034,2.02157,0.00396733,13152.5,103.539
"2016-09-01 23:15:00 000",395.726,0.939277,2.01871,0.00519506,13174.0,105.001
"2016-09-01 23:25:00 000",395.278,1.00845,2.01502,0.00460334,13177.3,113.987
"2016-09-01 23:35:00 000",395.707,0.869179,2.01029,0.00460457,13139.1,107.545
"2016-09-01 23:45:00 000",395.195,0.887505,2.00577,0.00496838,12963.6,113.738
"2016-09-01 23:55:00 000",397.133,1.01376,2.00589,0.00484087,12922.1,113.429
"2016-09-02 00:05:00 000",396.272,0.993348,2.00628,0.00451242,12894.6,125.198
"2016-09-02 00:15:00 000",397.488,2.54167,2.00901,0.00852020,12828.8,117.504
"2016-09-02 00:25:00 000",403.164,2.16395,2.02544,0.00791973,13122.1,147.589
"2016-09-02 00:35:00 000",401.405,1.99621,2.01880,0.00853406,13236.1,135.427
"2016-09-02 00:45:00 000",401.742,1.63788,2.01131,0.00862449,13429.3,137.472
"2016-09-02 00:55:00 000",403.203,1.92168,2.02825,0.0124636,13307.9,152.819
"2016-09-02 01:05:00 000",403.827,0.973190,2.00711,0.0125394,13367.9,161.054
"2016-09-02 01:15:00 000",403.639,1.24748,2.00126,0.00615006,13365.1,171.916
"2016-09-02 01:25:00 000",403.839,1.04380,2.01051,0.00669308,13299.9,170.457
"2016-09-02 01:35:00 000",403.676,2.85631,2.02330,0.0171440,13228.4,192.434
"2016-09-02 01:45:00 000",407.467,2.42828,2.04059,0.0142472,13227.8,168.357
"2016-09-02 01:55:00 000",403.456,2.31978,2.01195,0.0161910,13269.3,190.593
"2016-09-02 02:05:00 000",400.616,1.24616,1.99389,0.00662776,13136.3,194.177
"2016-09-02 02:15:00 000",400.823,1.74788,1.99059,0.00606210,13050.6,190.053
"2016-09-02 02:25:00 000",398.818,1.60286,1.98675,0.00756608,12947.0,183.052
"2016-09-02 02:35:00 000",395.981,1.12799,1.97864,0.00616967,12797.5,186.818
"2016-09-02 02:45:00 000",395.476,1.00857,1.97076,0.00634125,12704.8,170.272
"2016-09-02 02:55:00 000",396.081,1.08816,1.96559,0.00639643,12721.1,158.545
"2016-09-02 03:05:00 000",395.362,0.986065,1.96048,0.00633572,12721.8,160.552
"2016-09-02 03:15:00 000",394.726,1.00061,1.94941,0.00637919,12575.9,178.794
"2016-09-02 03:25:00 000",393.834,1.00450,1.94947,0.00598666,12563.9,154.605
"2016-09-02 03:35:00 000",393.797,0.978007,1.94770,0.00572699,12665.3,146.226
"2016-09-02 03:45:00 000",390.984,1.99099,1.93471,0.00750735,12488.7,229.644
"2016-09-02 03:55:00 000",391.466,1.31863,1.93797,0.00676562,12377.4,166.200
"2016-09-02 04:05:00 000",390.208,1.68793,1.93547,0.00794013,12407.1,238.514
"2016-09-02 04:15:00 000",389.806,1.10367,1.93344,0.00624074,12185.0,154.513
"2016-09-02 04:25:00 000",389.328,0.882146,1.94102,0.00578047,12349.2,162.087
"2016-09-02 04:35:00 000",388.916,0.896895,1.93928,0.00605712,12248.7,181.106
"2016-09-02 04:45:00 000",388.618,0.837196,1.94097,0.00624443,12169.1,170.717
"2016-09-02 04:55:00 000",388.073,1.11317,1.93472,0.00660804,12236.8,171.448
"2016-09-02 05:05:00 000",386.896,1.11414,1.93107,0.00610613,12057.5,168.465
"2016-09-02 05:15:00 000",388.053,0.985033,1.93420,0.00755562,12346.0,198.024
"2016-09-02 05:25:00 000",388.188,1.14824,1.94152,0.0122404,12151.7,211.910
"2016-09-02 05:35:00 000",388.819,0.928689,1.91737,0.00598262,12967.7,186.606
"2016-09-02 05:45:00 000",389.386,0.981238,1.92089,0.00568488,12926.3,171.509
"2016-09-02 05:55:00 000",390.859,0.923825,1.92245,0.00628625,12838.9,174.531
"2016-09-02 06:05:00 000",391.245,1.00734,1.92478,0.00622729,12916.2,190.158
"2016-09-02 06:15:00 000",394.047,1.86846,1.92585,0.00594177,12987.1,197.192
"2016-09-02 06:25:00 000",396.546,1.86657,1.92921,0.00637513,12990.1,178.842
"2016-09-02 06:35:00 000",397.663,1.44860,1.93517,0.00611677,12910.3,184.229
"2016-09-02 06:45:00 000",400.111,1.54056,1.93895,0.00821998,12929.0,183.528
"2016-09-02 06:55:00 000",405.078,3.97372,1.96011,0.0219617,13062.9,176.067
"2016-09-02 07:05:00 000",411.402,2.37556,1.99779,0.0147386,13304.8,169.875
"2016-09-02 07:15:00 000",410.406,2.42088,2.00803,0.00863495,13247.2,176.651
"2016-09-02 07:25:00 000",408.238,1.89049,1.99875,0.00893156,13120.5,152.519
"2016-09-02 07:35:00 000",409.245,1.66232,2.00305,0.00711568,13394.7,179.650
"2016-09-02 07:45:00 000",406.413,2.40858,2.00158,0.00717211,13456.7,122.660
"2016-09-02 07:55:00 000",402.691,1.59527,1.99601,0.00535817,13587.4,103.561
"2016-09-02 08:05:00 000",401.856,1.62365,2.00434,0.00745957,13909.6,168.603
"2016-09-02 08:15:00 000",399.694,0.953905,2.00216,0.00694853,14049.1,128.446
"2016-09-02 08:25:00 000",394.113,1.81127,1.97242,0.00882087,13476.4,213.504
"2016-09-02 08:35:00 000",391.571,1.02596,1.95830,0.00536820,13194.8,146.099
"2016-09-02 08:45:00 000",392.102,0.961027,1.96253,0.00833373,13326.8,372.358
"2016-09-02 08:55:00 000",392.436,0.982638,1.96908,0.00478130,13714.6,148.897
"2016-09-02 09:05:00 000",391.516,1.14138,1.96714,0.00536396,13435.8,183.578
"2016-09-02 09:15:00 000",391.044,1.22276,1.96261,0.00605211,13050.9,257.495
"2016-09-02 09:25:00 000",389.786,0.903007,1.96577,0.00467965,13275.8,159.341
"2016-09-02 09:35:00 000",388.628,0.966172,1.96462,0.00542297,13272.0,197.788
"2016-09-02 09:45:00 000",388.537,0.908444,1.95657,0.00477660,13070.5,97.1386
"2016-09-02 09:55:00 000",389.500,1.08491,1.96201,0.00428401,13164.9,103.741
"2016-09-02 10:05:00 000",390.318,0.972971,1.96838,0.00512885,13151.8,125.467
"2016-09-02 10:15:00 000",389.652,0.901171,1.95741,0.00397051,12941.1,116.438
"2016-09-02 10:25:00 000",388.982,1.03982,1.95072,0.00758083,12569.3,327.933
"2016-09-02 10:35:00 000",388.803,1.05132,1.94196,0.00408367,11986.5,211.092
"2016-09-02 10:45:00 000",389.834,0.958280,1.94181,0.00447227,11771.5,124.429
"2016-09-02 10:55:00 000",389.288,0.986075,1.94861,0.00503373,12027.4,133.815
"2016-09-02 11:05:00 000",389.182,0.934887,1.94802,0.00559290,11982.8,319.141
"2016-09-02 11:15:00 000",389.438,0.990499,1.94882,0.00588341,11836.3,143.816
"2016-09-02 11:25:00 000",388.893,0.962663,1.94747,0.00401821,11994.6,114.592
"2016-09-02 11:35:00 000",387.195,0.966334,1.94244,0.00503285,11748.0,154.767
"2016-09-02 11:45:00 000",386.807,1.01452,1.94041,0.00435751,11610.6,162.525
"2016-09-02 11:55:00 000",386.919,1.15925,1.94273,0.00529526,11884.8,109.362
"2016-09-02 12:05:00 000",386.229,0.961258,1.94301,0.00530325,11986.1,145.613
"2016-09-02 12:15:00 000",386.128,0.883287,1.94797,0.00479576,12258.4,145.680
"2016-09-02 12:25:00 000",386.262,0.904538,1.94836,0.00506978,12209.6,121.461
"2016-09-02 12:35:00 000",385.582,0.914597,1.94068,0.00472716,12068.2,110.287
"2016-09-02 12:45:00 000",385.221,0.934776,1.93776,0.00464720,12018.5,138.487
"2016-09-02 12:55:00 000",384.745,0.913382,1.93353,0.00401340,12083.9,114.512
"2016-09-02 13:05:00 000",384.395,1.07756,1.93550,0.00448335,11935.1,146.211
"2016-09-02 13:15:00 000",383.482,0.891889,1.93628,0.00447962,12113.4,124.885
"2016-09-02 13:25:00 000",383.460,0.946569,1.93613,0.00392542,12180.3,93.4551
"2016-09-02 13:35:00 000",383.154,0.903729,1.93984,0.00475596,12228.1,98.3439
"2016-09-02 13:45:00 000",383.116,0.943630,1.93831,0.00472801,12342.5,92.9673
"2016-09-02 13:55:00 000",382.861,0.929979,1.94072,0.00464161,12383.8,127.416
"2016-09-02 14:05:00 000",382.890,0.947560,1.93947,0.00439809,12478.9,116.587
"2016-09-02 14:15:00 000",382.485,0.915658,1.94180,0.00456803,12556.7,94.5153
"2016-09-02 14:25:00 000",382.723,0.956037,1.94220,0.00491539,12473.6,112.461
"2016-09-02 14:35:00 000",381.991,0.953964,1.94370,0.00554071,12653.5,113.231
"2016-09-02 14:45:00 000",381.975,1.00220,1.94302,0.00574663,12674.0,123.481
"2016-09-02 14:55:00 000",382.144,0.936711,1.94420,0.00522717,12709.0,124.325
"2016-09-02 15:05:00 000",382.456,0.905252,1.94061,0.00457886,12612.0,129.803
"2016-09-02 15:15:00 000",381.678,0.902072,1.94525,0.00709479,12737.0,136.670
"2016-09-02 15:25:00 000",381.371,0.897805,1.94674,0.00596487,12764.7,111.965
"2016-09-02 15:35:00 000",381.576,0.943759,1.94334,0.00557221,12781.7,116.785
"2016-09-02 15:45:00 000",381.590,0.878061,1.94352,0.00439309,12840.0,100.206
"2016-09-02 15:55:00 000",381.905,0.838223,1.94380,0.00405103,12846.4,88.4606
"2016-09-02 16:05:00 000",381.849,0.953611,1.94510,0.00390482,12946.1,98.3298
"2016-09-02 16:15:00 000",382.372,0.959418,1.94445,0.00411416,13107.3,84.0797
"2016-09-02 16:25:00 000",382.627,0.873941,1.94431,0.00396678,12992.8,84.5947
"2016-09-02 16:35:00 000",382.855,0.810039,1.94094,0.00384973,13033.4,101.102
"2016-09-02 16:45:00 000",383.229,0.852385,1.94288,0.00472271,12971.8,129.786
"2016-09-02 16:55:00 000",383.808,0.933158,1.94745,0.00414051,13176.0,99.3307
"2016-09-02 17:05:00 000",383.242,0.805855,1.95016,0.00437997,13395.8,90.3163
"2016-09-02 17:15:00 000",383.129,0.976907,1.95320,0.00434725,13351.4,114.089
"2016-09-02 17:25:00 000",384.091,0.871395,1.96171,0.00644178,13438.1,107.956
"2016-09-02 17:35:00 000",384.568,0.886252,1.96916,0.00648555,13412.8,131.722
"2016-09-02 17:45:00 000",384.993,1.22088,1.96945,0.00519083,13389.9,95.3088
"2016-09-02 17:55:00 000",385.311,1.39713,1.96350,0.00481235,13314.6,110.063
"2016-09-02 18:05:00 000",383.046,0.958689,1.96227,0.00476771,13242.1,90.3157
"2016-09-02 18:15:00 000",383.986,1.00949,1.96551,0.00542510,13257.7,90.0499
"2016-09-02 18:25:00 000",384.835,0.978427,1.96623,0.00480237,13278.5,91.8613
"2016-09-02 18:35:00 000",384.521,1.10694,1.96881,0.00591235,13265.8,99.4474
"2016-09-02 18:45:00 000",384.959,1.20473,1.96529,0.00465222,13260.9,88.5979
"2016-09-02 18:55:00 000",384.125,1.24535,1.96716,0.00439933,13267.6,100.377
"2016-09-02 19:05:00 000",384.619,1.35993,1.96988,0.00469801,13245.5,99.1094
"2016-09-02 19:15:00 000",384.881,1.20048,1.97617,0.00443095,13336.5,105.970
"2016-09-02 19:25:00 000",384.809,1.10707,1.97344,0.00406762,13427.6,89.2605
"2016-09-02 19:35:00 000",384.525,1.14700,1.97321,0.00457790,13402.5,94.7766
"2016-09-02 19:45:00 000",385.583,0.914810,1.97860,0.00417398,13396.4,92.0852
"2016-09-02 19:55:00 000",386.417,1.23875,1.97877,0.00410843,13421.9,98.9340
"2016-09-02 20:05:00 000",385.924,1.26279,1.98071,0.00464407,13498.4,95.4559
"2016-09-02 20:15:00 000",384.972,1.85784,1.99060,0.00581030,13448.8,91.1450
"2016-09-02 20:25:00 000",388.595,0.961870,2.00328,0.00513898,13476.8,96.7360
"2016-09-02 20:35:00 000",389.786,0.987484,2.00548,0.00556340,13595.1,114.922
"2016-09-02 20:45:00 000",390.226,1.07937,2.02611,0.0118231,13715.1,82.0050
"2016-09-02 20:55:00 000",388.203,1.76155,1.99654,0.0111569,13732.9,98.6431
"2016-09-02 21:05:00 000",388.405,2.09701,1.98463,0.0132479,13874.2,90.7795
"2016-09-02 21:15:00 000",385.266,1.27918,1.97062,0.00508652,13837.7,99.4130
"2016-09-02 21:25:00 000",384.040,1.17395,1.97213,0.00431762,13909.0,96.7111
"2016-09-02 21:35:00 000",385.178,0.841085,1.97186,0.00432701,13896.2,94.0164
"2016-09-02 21:45:00 000",386.365,1.14116,1.97508,0.00473763,13899.5,103.675
"2016-09-02 21:55:00 000",389.311,2.36219,1.98056,0.00728116,13841.5,91.8977
"2016-09-02 22:05:00 000",396.485,1.02365,2.00285,0.00514439,13921.3,87.3659
"2016-09-02 22:15:00 000",395.141,1.23555,2.00229,0.00625434,13971.1,86.8811
"2016-09-02 22:25:00 000",394.759,1.28269,2.00049,0.00962690,14012.5,92.7805
"2016-09-02 22:35:00 000",395.178,2.36873,2.02013,0.0168186,14006.4,105.771
"2016-09-02 22:45:00 000",399.167,2.32939,2.03709,0.0181187,13948.7,104.123
"2016-09-02 22:55:00 000",407.321,4.68320,2.05778,0.0135380,14020.6,115.872
"2016-09-02 23:05:00 000",405.203,3.87168,2.05015,0.0120600,13794.0,293.702
"2016-09-02 23:15:00 000",399.945,1.76875,2.02851,0.00991260,12959.2,274.134
"2016-09-02 23:25:00 000",398.099,1.10869,2.01979,0.00534241,12345.0,141.493
"2016-09-02 23:35:00 000",398.279,0.983624,2.02529,0.00589884,12356.7,146.383
"2016-09-02 23:45:00 000",398.895,0.875504,2.03309,0.00577302,12424.4,158.494
"2016-09-02 23:55:00 000",397.348,1.03750,2.02398,0.00754829,12114.2,210.631
"2016-09-03 00:05:00 000",397.482,1.07695,2.02134,0.00643043,11886.8,174.913
"2016-09-03 00:15:00 000",397.391,0.959068,2.02624,0.00792809,11971.0,195.240
"2016-09-03 00:25:00 000",396.718,1.59356,2.01006,0.0193792,11836.3,330.244
"2016-09-03 00:35:00 000",394.164,1.69467,1.97621,0.0150949,11061.6,233.564
"2016-09-03 00:45:00 000",394.451,1.13031,1.97219,0.00768972,10878.0,174.638
"2016-09-03 00:55:00 000",393.615,1.09874,1.97851,0.00809030,10790.9,175.875
"2016-09-03 01:05:00 000",393.714,0.941598,1.98385,0.00607587,11003.6,179.753
"2016-09-03 01:15:00 000",394.774,1.03300,1.98501,0.00815773,11137.9,168.159
"2016-09-03 01:25:00 000",395.837,0.955906,1.99199,0.00784506,11354.5,169.449
"2016-09-03 01:35:00 000",397.590,1.14981,2.00263,0.00694999,11597.3,170.364
"2016-09-03 01:45:00 000",398.354,1.12381,1.98000,0.0117501,11461.7,240.787
"2016-09-03 01:55:00 000",397.899,1.00169,1.97099,0.00661166,11199.4,170.662
"2016-09-03 02:05:00 000",394.522,1.80331,1.95720,0.00857553,11256.0,146.444
"2016-09-03 02:15:00 000",391.773,1.17211,1.94466,0.00699884,11313.8,144.063